sat.trackr.live / text

‹ back to catalog

KL-BETA A

NORAD 49059 · 2021-070A

PAYLOAD ACTIVE UNKNOWN

§ Identity

Operator
Country
GER
Launch date
2021-08-04
Launch site
TAISC
Launch vehicle
Mass (kg)
RCS (m²)

External: N2YO · Heavens-Above · Gunter

§ Orbital elements

Epoch: 2026-09-20T22:37:18.955200Z

Period
103.27 min
Inclination
89.0116°
Eccentricity
0.0003754
Mean motion
13.94405372 rev/d
Perigee alt
910.5 km
Apogee alt
916.0 km
Semi-major
7,291.4 km
B*
8.9297e-5
RAAN
208.2389°
Arg perigee
81.8493°
Mean anomaly
278.3108°
Rev number
26,127

§ Raw data

KL-BETA A1 49059U 21070A   26263.94258050  .00000132  00000+0  89297-4 0  99932 49059  89.0116 208.2389 0003754  81.8493 278.3108 13.94405372261273

JSON: /api/v1/satellites/49059 · /tle

For live sub-satellite position, see the globe view (requires WebGL).

§ Visibility from observer

Set your observer location to see the next 7 days of passes ≥ 10°. The values pass through the URL so the page stays shareable.

No JS? Fill the form by hand. The geolocation button needs JavaScript.